Weather History for KCMH - January, 2014

Change the Weather History Date:

Thursday, January 23, 2014

  Actual Average Record
Temperature  
Mean Temperature 9 °F 29 °F  
Max Temperature 15 °F 37 °F 68 °F (1967)
Min Temperature 2 °F 22 °F -15 °F (1936)
Degree Days  
Heating Degree Days 56 36  
Month to date heating degree days 915 821  
Since 1 July heating degree days 2908 2812  
Cooling Degree Days 0 0  
Month to date cooling degree days 0 0  
Year to date cooling degree days 0 0  
Moisture  
Dew Point 0 °F    
Average Humidity 69    
Maximum Humidity 80    
Minimum Humidity 58    
Precipitation  
Precipitation 0.01 in 0.09 in 1.00 in (1996)
Month to date precipitation 1.98 2.07  
Year to date precipitation 1.98 2.07  
Snow  
Snow 0.20 in 0.30 in 3.20 in (1963)
Month to date snowfall 9.1 6.9  
Since 1 July snowfall 26.5 13.0  
Snow Depth 1.00 in    
Sea Level Pressure  
Sea Level Pressure 30.31 in    
Wind  
Wind Speed 15 mph (West)    
Max Wind Speed 21 mph    
Max Gust Speed 26 mph    
Visibility 7 miles    
Events Snow    
T = Trace of Precipitation, MM = Missing Value Source: NWS Daily Summary

Daily Weather History Graph

Daily Weather History Graph

Search for Another Location

Airport or City:

Trip Planner

Search our weather history database for the weather conditions in past years. The results will help you decide how hot, cold, wet, or windy it might be!

Date:

Astronomy

Jan. 23, 2014 Rise Set
Actual Time 7:47 AM EST 5:40 PM EST
Civil Twilight 7:18 AM EST 6:09 PM EST
Nautical Twilight 6:45 AM EST 6:42 PM EST
Astronomical Twilight 6:12 AM EST 7:14 PM EST
Moon 12:10 AM EST (1/23) 11:21 AM EST (1/23)
Length of Visible Light 10h 51m
Length of Day
9h 52m
Waning Gibbous, 55% of the Moon is Illuminated
Jan 23
Waning Gibbous
Jan 24
Last Quarter
Jan 30
New
Feb 6
First Quarter
Feb 14
Full

Hourly Weather History & Observations

Time (EST) Temp. Windchill Dew Point Humidity Pressure Visibility Wind Dir Wind Speed Gust Speed Precip Events Conditions
12:07 AM 12.2 °F 1.7 °F 6.8 °F 79% 30.00 in 2.0 mi SSW 6.9 mph - 0.00 in Snow Light Snow
12:20 AM 12.2 °F 1.7 °F 8.6 °F 85% 30.00 in 5.0 mi SSW 6.9 mph - 0.00 in Snow Light Snow
12:29 AM 12.2 °F 0.7 °F 8.6 °F 85% 30.00 in 5.0 mi SSW 8.1 mph - 0.00 in Snow Light Snow
12:51 AM 14.0 °F 3.9 °F 8.1 °F 77% 30.04 in 3.0 mi SSW 6.9 mph - 0.01 in Snow Light Snow
1:18 AM 14.0 °F 2.0 °F 8.6 °F 79% 29.99 in 7.0 mi SW 9.2 mph - 0.00 in Snow Light Snow
1:43 AM 15.8 °F 6.1 °F 8.6 °F 73% 30.00 in 7.0 mi SW 6.9 mph - 0.00 in Snow Light Snow
1:51 AM 15.1 °F 1.8 °F 9.0 °F 77% 30.04 in 7.0 mi WSW 11.5 mph - 0.00 in Snow Light Snow
2:06 AM 15.8 °F 1.4 °F 8.6 °F 73% 30.00 in 10.0 mi WSW 13.8 mph - N/A   Overcast
2:51 AM 14.0 °F -0.8 °F 7.0 °F 74% 30.08 in 3.0 mi West 13.8 mph 21.9 mph 0.00 in Snow Light Snow
3:00 AM 14.0 °F -3.9 °F 6.8 °F 73% 30.04 in 2.5 mi West 20.7 mph 24.2 mph 0.00 in Snow Light Snow
3:19 AM 12.2 °F -5.3 °F 5.0 °F 73% 30.05 in 5.0 mi West 18.4 mph 25.3 mph 0.00 in Snow Light Snow
3:51 AM 10.9 °F -4.7 °F 3.0 °F 70% 30.12 in 9.0 mi West 13.8 mph - 0.00 in   Overcast
4:51 AM 10.0 °F -7.1 °F 1.9 °F 70% 30.15 in 10.0 mi West 16.1 mph - 0.00 in   Mostly Cloudy
5:01 AM 8.6 °F -10.0 °F 1.4 °F 73% 30.11 in 10.0 mi West 18.4 mph - N/A   Mostly Cloudy
5:51 AM 8.1 °F -12.2 °F -0.0 °F 70% 30.19 in 9.0 mi West 21.9 mph 26.5 mph N/A   Mostly Cloudy
6:51 AM 6.1 °F -12.8 °F -2.0 °F 69% 30.24 in 10.0 mi West 17.3 mph - N/A   Mostly Cloudy
7:51 AM 6.1 °F -13.3 °F -2.9 °F 67% 30.27 in 4.0 mi West 18.4 mph 26.5 mph 0.00 in Snow Light Snow
8:04 AM 6.8 °F -12.9 °F -2.2 °F 67% 30.22 in 7.0 mi West 19.6 mph - 0.00 in   Overcast
8:51 AM 5.0 °F -13.6 °F -2.9 °F 70% 30.31 in 5.0 mi West 16.1 mph - 0.00 in   Haze
9:51 AM 5.0 °F -13.6 °F -4.0 °F 66% 30.36 in 8.0 mi West 16.1 mph - N/A   Scattered Clouds
10:51 AM 5.0 °F -14.2 °F -4.0 °F 66% 30.41 in 8.0 mi WNW 17.3 mph - N/A   Mostly Cloudy
11:51 AM 7.0 °F -9.8 °F -4.0 °F 61% 30.42 in 10.0 mi WNW 13.8 mph - N/A   Mostly Cloudy
12:51 PM 7.0 °F -9.1 °F -5.1 °F 58% 30.43 in 9.0 mi West 12.7 mph - N/A   Mostly Cloudy
1:51 PM 10.0 °F -7.1 °F -2.0 °F 58% 30.44 in 10.0 mi WNW 16.1 mph - N/A   Scattered Clouds
2:51 PM 10.0 °F -6.5 °F -2.0 °F 58% 30.45 in 10.0 mi West 15.0 mph 20.7 mph N/A   Scattered Clouds
3:51 PM 10.0 °F -7.1 °F -2.9 °F 56% 30.48 in 10.0 mi WNW 16.1 mph - N/A   Scattered Clouds
4:51 PM 9.0 °F -8.5 °F -2.9 °F 59% 30.51 in 10.0 mi WNW 16.1 mph - N/A   Overcast
5:40 PM 8.6 °F -7.7 °F -2.2 °F 62% 30.48 in 10.0 mi WNW 13.8 mph - N/A   Overcast
5:51 PM 8.1 °F -8.4 °F -2.9 °F 61% 30.54 in 10.0 mi WNW 13.8 mph - N/A   Overcast
6:07 PM 8.6 °F -8.3 °F -2.2 °F 62% 30.49 in 8.0 mi West 15.0 mph 20.7 mph 0.00 in Snow Light Snow
6:32 PM 6.8 °F -10.7 °F -2.2 °F 67% 30.50 in 3.0 mi West 15.0 mph - 0.00 in Snow Light Snow
6:51 PM 7.0 °F -11.0 °F -2.0 °F 67% 30.56 in 5.0 mi West 16.1 mph 20.7 mph 0.00 in Snow Light Snow
7:04 PM 6.8 °F -11.3 °F -2.2 °F 67% 30.51 in 5.0 mi WNW 16.1 mph - 0.00 in Snow Light Snow
7:51 PM 6.1 °F -10.9 °F -2.9 °F 67% 30.58 in 5.0 mi West 13.8 mph - 0.00 in Snow Light Snow
8:51 PM 6.1 °F -12.2 °F -4.0 °F 63% 30.59 in 9.0 mi West 16.1 mph - 0.00 in Snow Light Snow
9:15 PM 6.8 °F -9.3 °F -2.2 °F 67% 30.53 in 4.0 mi West 12.7 mph - 0.00 in Snow Light Snow
9:51 PM 5.0 °F -12.3 °F -4.0 °F 66% 30.60 in 5.0 mi WNW 13.8 mph - 0.00 in Snow Light Snow
10:51 PM 3.9 °F -10.4 °F -5.1 °F 66% 30.60 in 9.0 mi West 9.2 mph - 0.00 in Snow Light Snow
11:21 PM 3.2 °F -12.2 °F -5.8 °F 66% 30.54 in 10.0 mi WNW 10.4 mph - 0.00 in   Overcast
11:51 PM 1.9 °F -10.6 °F -6.0 °F 69% 30.60 in 9.0 mi West 6.9 mph - 0.00 in Snow Light Snow